Time,TemperatureF,DewpointF,PressureIn,WindDirection,WindDirectionDegrees,WindSpeedMPH,WindSpeedGustMPH,Humidity,HourlyPrecipIn,Conditions,Clouds,dailyrainin,SoftwareType,DateUTC
2013-05-03 00:02:00,42.0,41.0,30.16,NNW,330,4.0,11.0,96,0.06,,,0.28,,2013-05-03 05:02:00,
2013-05-03 00:12:00,42.0,41.0,30.16,NNW,330,4.0,11.0,96,0.06,,,0.28,,2013-05-03 05:12:00,
2013-05-03 00:21:00,42.0,41.0,30.16,NNW,343,4.0,11.0,96,0.06,,,0.30,,2013-05-03 05:21:00,
2013-05-03 00:32:00,42.0,41.0,30.16,NW,306,3.0,9.0,96,0.06,,,0.30,,2013-05-03 05:32:00,
2013-05-03 00:42:00,42.0,41.0,30.16,NW,306,3.0,9.0,96,0.06,,,0.30,,2013-05-03 05:42:00,
2013-05-03 00:52:00,41.0,40.0,30.16,NW,317,3.0,10.0,96,0.03,,,0.30,,2013-05-03 05:52:00,
2013-05-03 01:02:00,41.0,40.0,30.16,NNW,327,4.0,7.0,96,0.02,,,0.31,,2013-05-03 06:02:00,
2013-05-03 01:12:00,41.0,40.0,30.16,NNW,327,4.0,7.0,96,0.02,,,0.31,,2013-05-03 06:12:00,
2013-05-03 01:21:00,41.0,40.0,30.16,NW,325,6.0,16.0,95,0.01,,,0.31,,2013-05-03 06:21:00,
2013-05-03 01:32:00,40.0,39.0,30.15,NNW,336,4.0,14.0,95,0.01,,,0.31,,2013-05-03 06:32:00,
2013-05-03 01:42:00,40.0,39.0,30.15,NNW,336,4.0,14.0,95,0.01,,,0.31,,2013-05-03 06:42:00,
2013-05-03 01:51:00,40.0,39.0,30.14,NNW,342,5.0,9.0,95,0.01,,,0.31,,2013-05-03 06:51:00,
2013-05-03 02:01:00,40.0,39.0,30.14,North,360,4.0,9.0,95,0.00,,,0.31,,2013-05-03 07:01:00,
2013-05-03 02:11:00,40.0,39.0,30.14,North,360,4.0,9.0,95,0.00,,,0.31,,2013-05-03 07:11:00,
2013-05-03 02:21:00,40.0,39.0,30.13,North,355,3.0,7.0,96,0.00,,,0.31,,2013-05-03 07:21:00,
2013-05-03 02:31:00,40.0,39.0,30.12,WNW,290,5.0,10.0,95,0.00,,,0.31,,2013-05-03 07:31:00,
2013-05-03 02:42:00,40.0,39.0,30.12,WNW,290,5.0,10.0,95,0.00,,,0.31,,2013-05-03 07:42:00,
2013-05-03 02:52:00,39.0,38.0,30.11,North,11,6.0,12.0,95,0.01,,,0.32,,2013-05-03 07:52:00,
2013-05-03 03:02:00,39.0,38.0,30.11,North,355,4.0,13.0,95,0.01,,,0.32,,2013-05-03 08:02:00,
2013-05-03 03:11:00,39.0,38.0,30.11,North,355,4.0,13.0,95,0.01,,,0.32,,2013-05-03 08:11:00,
2013-05-03 03:21:00,38.0,37.0,30.11,NNW,348,5.0,11.0,96,0.01,,,0.32,,2013-05-03 08:21:00,
2013-05-03 03:32:00,38.0,37.0,30.10,NNW,342,6.0,15.0,95,0.01,,,0.32,,2013-05-03 08:32:00,
2013-05-03 03:42:00,38.0,37.0,30.10,NNW,342,6.0,15.0,95,0.01,,,0.32,,2013-05-03 08:42:00,
2013-05-03 03:52:00,38.0,37.0,30.10,NNW,328,4.0,10.0,96,0.00,,,0.32,,2013-05-03 08:52:00,
2013-05-03 04:01:00,38.0,37.0,30.10,North,360,5.0,12.0,96,0.00,,,0.32,,2013-05-03 09:01:00,
2013-05-03 04:12:00,38.0,37.0,30.10,North,360,5.0,12.0,96,0.00,,,0.32,,2013-05-03 09:12:00,
2013-05-03 04:21:00,38.0,37.0,30.10,North,349,3.0,6.0,96,0.00,,,0.32,,2013-05-03 09:21:00,
2013-05-03 04:32:00,38.0,37.0,30.10,NW,324,1.0,7.0,96,0.00,,,0.32,,2013-05-03 09:32:00,
2013-05-03 04:42:00,38.0,37.0,30.10,NW,324,1.0,7.0,96,0.00,,,0.32,,2013-05-03 09:42:00,
2013-05-03 04:52:00,38.0,37.0,30.10,NW,325,3.0,10.0,96,0.01,,,0.33,,2013-05-03 09:52:00,
2013-05-03 05:02:00,37.0,36.0,30.09,NNW,345,4.0,12.0,96,0.01,,,0.33,,2013-05-03 10:02:00,
2013-05-03 05:12:00,37.0,36.0,30.09,NNW,345,4.0,12.0,96,0.01,,,0.33,,2013-05-03 10:12:00,
2013-05-03 05:22:00,37.0,36.0,30.09,North,350,3.0,11.0,96,0.01,,,0.33,,2013-05-03 10:22:00,
2013-05-03 05:32:00,37.0,36.0,30.08,North,355,4.0,8.0,96,0.01,,,0.33,,2013-05-03 10:32:00,
2013-05-03 05:42:00,37.0,36.0,30.08,North,355,4.0,8.0,96,0.01,,,0.33,,2013-05-03 10:42:00,
2013-05-03 05:52:00,37.0,36.0,30.08,NNW,331,1.0,11.0,96,0.00,,,0.33,,2013-05-03 10:52:00,
2013-05-03 06:02:00,37.0,36.0,30.07,NW,319,3.0,6.0,96,0.01,,,0.34,,2013-05-03 11:02:00,
2013-05-03 06:11:00,37.0,36.0,30.07,NW,319,3.0,6.0,96,0.01,,,0.34,,2013-05-03 11:11:00,
2013-05-03 06:22:00,37.0,36.0,30.07,NNW,348,3.0,7.0,96,0.01,,,0.34,,2013-05-03 11:22:00,
2013-05-03 06:32:00,37.0,36.0,30.07,NNW,344,4.0,8.0,96,0.01,,,0.34,,2013-05-03 11:32:00,
2013-05-03 06:42:00,37.0,36.0,30.07,NNW,344,4.0,8.0,96,0.01,,,0.34,,2013-05-03 11:42:00,
2013-05-03 06:51:00,37.0,36.0,30.07,NW,304,3.0,7.0,96,0.01,,,0.34,,2013-05-03 11:51:00,
2013-05-03 07:01:00,37.0,36.0,30.06,NNW,344,3.0,8.0,96,0.00,,,0.34,,2013-05-03 12:01:00,
2013-05-03 07:11:00,37.0,36.0,30.06,NNW,344,3.0,8.0,96,0.00,,,0.34,,2013-05-03 12:11:00,
2013-05-03 07:21:00,37.0,36.0,30.06,NW,320,2.0,12.0,96,0.00,,,0.34,,2013-05-03 12:21:00,
2013-05-03 07:32:00,37.0,36.0,30.06,North,5,3.0,10.0,96,0.01,,,0.35,,2013-05-03 12:32:00,
2013-05-03 07:42:00,37.0,36.0,30.06,North,5,3.0,10.0,96,0.01,,,0.35,,2013-05-03 12:42:00,
2013-05-03 07:51:00,37.0,36.0,30.06,North,351,2.0,8.0,96,0.01,,,0.35,,2013-05-03 12:51:00,
2013-05-03 08:01:00,37.0,36.0,30.06,North,355,3.0,8.0,96,0.01,,,0.35,,2013-05-03 13:01:00,
2013-05-03 08:11:00,37.0,36.0,30.06,North,355,3.0,8.0,96,0.01,,,0.35,,2013-05-03 13:11:00,
2013-05-03 08:22:00,37.0,36.0,30.05,North,351,4.0,9.0,96,0.01,,,0.35,,2013-05-03 13:22:00,
2013-05-03 08:32:00,37.0,36.0,30.06,NNW,339,3.0,9.0,95,0.00,,,0.35,,2013-05-03 13:32:00,
2013-05-03 08:42:00,37.0,36.0,30.06,NNW,339,3.0,9.0,95,0.00,,,0.35,,2013-05-03 13:42:00,
2013-05-03 08:52:00,37.0,36.0,30.06,NNW,335,2.0,9.0,95,0.00,,,0.35,,2013-05-03 13:52:00,
2013-05-03 09:02:00,38.0,37.0,30.05,North,355,2.0,7.0,95,0.01,,,0.36,,2013-05-03 14:02:00,
2013-05-03 09:11:00,38.0,37.0,30.05,North,355,2.0,7.0,95,0.01,,,0.36,,2013-05-03 14:11:00,
2013-05-03 09:22:00,38.0,37.0,30.04,North,355,2.0,10.0,95,0.01,,,0.36,,2013-05-03 14:22:00,
2013-05-03 09:32:00,38.0,37.0,30.04,North,5,5.0,9.0,96,0.01,,,0.36,,2013-05-03 14:32:00,
2013-05-03 09:42:00,38.0,37.0,30.04,North,5,5.0,9.0,96,0.01,,,0.36,,2013-05-03 14:42:00,
2013-05-03 09:52:00,38.0,37.0,30.04,NNW,330,3.0,9.0,95,0.01,,,0.36,,2013-05-03 14:52:00,
2013-05-03 10:01:00,38.0,37.0,30.04,NW,321,4.0,8.0,95,0.00,,,0.36,,2013-05-03 15:01:00,
2013-05-03 10:11:00,38.0,37.0,30.04,NW,321,4.0,8.0,95,0.00,,,0.36,,2013-05-03 15:11:00,
2013-05-03 10:22:00,38.0,37.0,30.05,NNW,347,2.0,9.0,95,0.00,,,0.36,,2013-05-03 15:22:00,
2013-05-03 10:32:00,37.0,36.0,30.04,NNE,14,5.0,10.0,95,0.01,,,0.37,,2013-05-03 15:32:00,
2013-05-03 10:43:00,37.0,36.0,30.04,NNE,14,5.0,10.0,95,0.01,,,0.37,,2013-05-03 15:43:00,
2013-05-03 10:53:00,37.0,36.0,30.03,NW,304,5.0,12.0,95,0.01,,,0.37,,2013-05-03 15:53:00,
2013-05-03 11:03:00,38.0,37.0,30.04,NW,309,2.0,7.0,95,0.01,,,0.37,,2013-05-03 16:03:00,
2013-05-03 11:13:00,38.0,37.0,30.04,NW,309,2.0,7.0,95,0.01,,,0.37,,2013-05-03 16:13:00,
2013-05-03 11:22:00,38.0,37.0,30.03,North,11,5.0,11.0,95,0.02,,,0.38,,2013-05-03 16:22:00,
2013-05-03 11:32:00,38.0,36.0,30.03,NNW,339,5.0,12.0,94,0.01,,,0.38,,2013-05-03 16:32:00,
2013-05-03 11:42:00,38.0,36.0,30.03,NNW,339,5.0,12.0,94,0.01,,,0.38,,2013-05-03 16:42:00,
2013-05-03 11:52:00,38.0,36.0,30.04,NNE,13,5.0,8.0,94,0.01,,,0.38,,2013-05-03 16:52:00,
2013-05-03 12:02:00,38.0,37.0,30.03,NW,317,3.0,9.0,95,0.01,,,0.38,,2013-05-03 17:02:00,
2013-05-03 12:12:00,38.0,37.0,30.03,NW,317,3.0,9.0,95,0.01,,,0.38,,2013-05-03 17:12:00,
2013-05-03 12:23:00,38.0,36.0,30.03,NW,308,5.0,11.0,94,0.00,,,0.38,,2013-05-03 17:23:00,
2013-05-03 12:32:00,38.0,36.0,30.03,NNW,342,5.0,10.0,93,0.00,,,0.36,,2013-05-03 17:32:00,
2013-05-03 12:42:00,38.0,36.0,30.03,NNW,342,5.0,10.0,93,0.00,,,0.36,,2013-05-03 17:42:00,
2013-05-03 12:51:00,38.0,36.0,30.03,NNW,348,3.0,10.0,94,0.00,,,0.36,,2013-05-03 17:51:00,
2013-05-03 13:01:00,37.0,35.0,30.03,NW,304,4.0,10.0,94,0.00,,,0.36,,2013-05-03 18:01:00,
2013-05-03 13:12:00,37.0,35.0,30.03,NW,304,4.0,10.0,94,0.00,,,0.36,,2013-05-03 18:12:00,
2013-05-03 13:21:00,37.0,35.0,30.03,NW,319,6.0,12.0,93,0.00,,,0.36,,2013-05-03 18:21:00,
2013-05-03 13:32:00,38.0,36.0,30.02,NNW,331,4.0,11.0,92,0.00,,,0.36,,2013-05-03 18:32:00,
2013-05-03 13:42:00,38.0,36.0,30.02,NNW,331,4.0,11.0,92,0.00,,,0.36,,2013-05-03 18:42:00,
2013-05-03 13:51:00,38.0,36.0,30.02,North,9,6.0,13.0,92,0.00,,,0.36,,2013-05-03 18:51:00,
2013-05-03 14:01:00,38.0,36.0,30.01,NNE,14,6.0,12.0,91,0.00,,,0.36,,2013-05-03 19:01:00,
2013-05-03 14:11:00,38.0,36.0,30.01,NNE,14,6.0,12.0,91,0.00,,,0.36,,2013-05-03 19:11:00,
2013-05-03 14:21:00,38.0,36.0,30.02,NNW,331,4.0,10.0,93,0.00,,,0.36,,2013-05-03 19:21:00,
2013-05-03 14:32:00,38.0,36.0,30.03,NE,36,2.0,9.0,94,0.00,,,0.36,,2013-05-03 19:32:00,
2013-05-03 14:42:00,38.0,36.0,30.03,NE,36,2.0,9.0,94,0.00,,,0.36,,2013-05-03 19:42:00,
2013-05-03 14:52:00,38.0,37.0,30.03,NW,322,1.0,7.0,95,0.01,,,0.37,,2013-05-03 19:52:00,
2013-05-03 15:02:00,38.0,37.0,30.02,West,273,3.0,14.0,95,0.02,,,0.38,,2013-05-03 20:02:00,
2013-05-03 15:11:00,38.0,37.0,30.02,West,273,3.0,14.0,95,0.02,,,0.38,,2013-05-03 20:11:00,
2013-05-03 15:21:00,38.0,37.0,30.01,NW,312,5.0,11.0,95,0.02,,,0.38,,2013-05-03 20:21:00,
2013-05-03 15:32:00,38.0,36.0,30.01,NNW,331,4.0,15.0,94,0.03,,,0.37,,2013-05-03 20:32:00,
2013-05-03 15:42:00,38.0,36.0,30.01,NNW,331,4.0,15.0,94,0.03,,,0.37,,2013-05-03 20:42:00,
2013-05-03 15:52:00,39.0,37.0,30.00,NW,326,6.0,13.0,94,0.02,,,0.37,,2013-05-03 20:52:00,
2013-05-03 16:01:00,39.0,38.0,29.99,NW,306,3.0,13.0,95,0.01,,,0.37,,2013-05-03 21:01:00,
2013-05-03 16:11:00,39.0,38.0,29.99,NW,306,3.0,13.0,95,0.01,,,0.37,,2013-05-03 21:11:00,
2013-05-03 16:21:00,39.0,37.0,29.99,West,279,4.0,20.0,93,0.02,,,0.38,,2013-05-03 21:21:00,
2013-05-03 16:33:00,39.0,37.0,29.99,North,350,4.0,14.0,92,0.01,,,0.34,,2013-05-03 21:33:00,
2013-05-03 16:42:00,39.0,37.0,29.99,North,350,4.0,14.0,92,0.01,,,0.34,,2013-05-03 21:42:00,
2013-05-03 16:52:00,39.0,37.0,29.99,NW,318,6.0,11.0,93,0.01,,,0.34,,2013-05-03 21:52:00,
2013-05-03 17:02:00,39.0,37.0,29.99,NW,318,3.0,12.0,93,0.01,,,0.34,,2013-05-03 22:02:00,
2013-05-03 17:12:00,39.0,37.0,29.99,NW,318,3.0,12.0,93,0.01,,,0.34,,2013-05-03 22:12:00,
2013-05-03 17:22:00,39.0,37.0,29.99,North,9,2.0,11.0,93,0.00,,,0.34,,2013-05-03 22:22:00,
2013-05-03 17:32:00,39.0,37.0,29.99,NNE,13,4.0,14.0,91,0.00,,,0.28,,2013-05-03 22:32:00,
2013-05-03 17:42:00,39.0,37.0,29.99,NNE,13,4.0,14.0,91,0.00,,,0.28,,2013-05-03 22:42:00,
2013-05-03 17:52:00,40.0,38.0,29.99,NW,324,3.0,10.0,93,0.00,,,0.28,,2013-05-03 22:52:00,
2013-05-03 18:02:00,40.0,38.0,29.99,North,11,5.0,14.0,92,0.00,,,0.28,,2013-05-03 23:02:00,
2013-05-03 18:11:00,40.0,38.0,29.99,North,11,5.0,14.0,92,0.00,,,0.28,,2013-05-03 23:11:00,
2013-05-03 18:21:00,40.0,38.0,29.99,North,5,4.0,14.0,92,0.01,,,0.30,,2013-05-03 23:21:00,
2013-05-03 18:31:00,39.0,37.0,29.99,North,355,3.0,10.0,93,0.01,,,0.27,,2013-05-03 23:31:00,
2013-05-03 18:41:00,39.0,37.0,29.99,North,355,3.0,10.0,93,0.01,,,0.27,,2013-05-03 23:41:00,
2013-05-03 18:52:00,39.0,37.0,29.99,North,360,3.0,9.0,94,0.01,,,0.27,,2013-05-03 23:52:00,
2013-05-03 19:01:00,39.0,37.0,29.99,North,355,6.0,12.0,93,0.01,,,0.27,,2013-05-04 00:01:00,
2013-05-03 19:11:00,39.0,37.0,29.99,North,355,6.0,12.0,93,0.01,,,0.27,,2013-05-04 00:11:00,
2013-05-03 19:23:00,39.0,37.0,30.00,North,355,2.0,7.0,94,0.00,,,0.27,,2013-05-04 00:23:00,
2013-05-03 19:32:00,39.0,37.0,30.00,WNW,302,5.0,12.0,93,0.00,,,0.27,,2013-05-04 00:32:00,
2013-05-03 19:41:00,39.0,37.0,30.00,WNW,302,5.0,12.0,93,0.00,,,0.27,,2013-05-04 00:41:00,
2013-05-03 19:52:00,38.0,37.0,30.00,NNW,328,2.0,6.0,95,0.00,,,0.27,,2013-05-04 00:52:00,
2013-05-03 20:01:00,38.0,36.0,30.00,NNW,342,2.0,8.0,94,0.00,,,0.27,,2013-05-04 01:01:00,
2013-05-03 20:11:00,38.0,36.0,30.00,NNW,342,2.0,8.0,94,0.00,,,0.27,,2013-05-04 01:11:00,
2013-05-03 20:21:00,38.0,37.0,30.00,NW,313,2.0,6.0,95,0.00,,,0.27,,2013-05-04 01:21:00,
2013-05-03 20:32:00,38.0,37.0,30.00,NW,321,0.0,6.0,95,0.00,,,0.27,,2013-05-04 01:32:00,
2013-05-03 20:41:00,38.0,37.0,30.00,NW,321,0.0,6.0,95,0.00,,,0.27,,2013-05-04 01:41:00,
2013-05-03 20:52:00,38.0,37.0,30.00,NNW,331,0.0,4.0,95,0.00,,,0.27,,2013-05-04 01:52:00,
2013-05-03 21:02:00,38.0,37.0,30.00,NNW,331,0.0,2.0,95,0.00,,,0.27,,2013-05-04 02:02:00,
2013-05-03 21:11:00,38.0,37.0,30.00,NNW,331,0.0,2.0,95,0.00,,,0.27,,2013-05-04 02:11:00,
2013-05-03 21:21:00,38.0,37.0,30.00,NNW,331,0.0,3.0,96,0.00,,,0.27,,2013-05-04 02:21:00,
2013-05-03 21:32:00,38.0,37.0,29.99,NNW,331,0.0,1.0,96,0.00,,,0.26,,2013-05-04 02:32:00,
2013-05-03 21:41:00,38.0,37.0,29.99,NNW,331,0.0,1.0,96,0.00,,,0.26,,2013-05-04 02:41:00,
2013-05-03 21:52:00,38.0,37.0,30.00,NNW,331,0.0,2.0,96,0.01,,,0.27,,2013-05-04 02:52:00,
2013-05-03 22:02:00,38.0,37.0,30.00,North,349,2.0,8.0,95,0.02,,,0.28,,2013-05-04 03:02:00,
2013-05-03 22:11:00,38.0,37.0,30.00,North,349,2.0,8.0,95,0.02,,,0.28,,2013-05-04 03:11:00,
2013-05-03 22:22:00,38.0,36.0,30.00,NNW,336,2.0,10.0,94,0.03,,,0.28,,2013-05-04 03:22:00,
2013-05-03 22:33:00,37.0,35.0,29.99,NNW,334,2.0,7.0,94,0.03,,,0.26,,2013-05-04 03:33:00,
2013-05-03 22:43:00,37.0,35.0,29.99,NNW,334,2.0,7.0,94,0.03,,,0.26,,2013-05-04 03:43:00,
2013-05-03 22:52:00,37.0,35.0,29.99,NNW,344,2.0,7.0,94,0.02,,,0.26,,2013-05-04 03:52:00,
2013-05-03 23:02:00,37.0,36.0,29.98,NW,324,0.0,4.0,95,0.01,,,0.26,,2013-05-04 04:02:00,
2013-05-03 23:12:00,37.0,36.0,29.98,NW,324,0.0,4.0,95,0.01,,,0.26,,2013-05-04 04:12:00,
2013-05-03 23:22:00,37.0,36.0,29.98,NW,319,0.0,5.0,95,0.00,,,0.26,,2013-05-04 04:22:00,
2013-05-03 23:33:00,37.0,36.0,29.97,NNW,330,1.0,6.0,95,0.00,,,0.22,,2013-05-04 04:33:00,
2013-05-03 23:42:00,37.0,36.0,29.97,NNW,330,1.0,6.0,95,0.00,,,0.22,,2013-05-04 04:42:00,
2013-05-03 23:52:00,37.0,36.0,29.96,WNW,286,1.0,7.0,96,0.01,,,0.23,,2013-05-04 04:52:00,